SWA551 KPVD-KDCA

Flight info

Callsign SWA551
Flight time 1h 11m
Altitude 34000
Route KPVD JUMPR RIFLE Q167 ZIZZI KNUKK ATR LAFLN DEALE3 KDCA
Aircraft B738/M-VGDW/C

Departure

Time 2026-05-08 00:48
Airport Rhode Island T. F. Green International Airport (KPVD)

Arrival

Time 2026-05-08 01:59
Airport Ronald Reagan Washington National Airport (KDCA)
Time Latitude Longitude Altitude Speed Heading
2026-05-08 00:23 41.72827 -71.43353 65 ft 0 kts 201°
2026-05-08 00:40 41.72830 -71.43351 56 ft 2 kts 201°
2026-05-08 00:40 41.72846 -71.43343 59 ft 2 kts 201°
2026-05-08 00:40 41.72862 -71.43335 59 ft 2 kts 201°
2026-05-08 00:41 41.72878 -71.43327 61 ft 2 kts 201°
2026-05-08 00:41 41.72885 -71.43323 57 ft 0 kts 201°
2026-05-08 00:42 41.72884 -71.43324 57 ft 1 kts 201°
2026-05-08 00:42 41.72878 -71.43318 58 ft 1 kts 139°
2026-05-08 00:42 41.72864 -71.43267 61 ft 12 kts 110°
2026-05-08 00:43 41.72811 -71.43184 65 ft 12 kts 168°
2026-05-08 00:43 41.72733 -71.43216 58 ft 12 kts 209°
2026-05-08 00:43 41.72664 -71.43275 58 ft 12 kts 212°
2026-05-08 00:43 41.72583 -71.43320 63 ft 13 kts 170°
2026-05-08 00:44 41.72544 -71.43212 63 ft 14 kts 91°
2026-05-08 00:44 41.72547 -71.43084 60 ft 14 kts 83°
2026-05-08 00:44 41.72556 -71.42957 56 ft 14 kts 88°
2026-05-08 00:44 41.72529 -71.42842 57 ft 13 kts 120°
2026-05-08 00:45 41.72475 -71.42723 57 ft 17 kts 121°
2026-05-08 00:45 41.72433 -71.42632 55 ft 14 kts 121°
2026-05-08 00:45 41.72370 -71.42522 51 ft 15 kts 136°
2026-05-08 00:45 41.72285 -71.42427 61 ft 16 kts 142°
2026-05-08 00:46 41.72196 -71.42336 56 ft 16 kts 142°
2026-05-08 00:46 41.72111 -71.42247 61 ft 15 kts 142°
2026-05-08 00:46 41.72030 -71.42160 65 ft 15 kts 141°
2026-05-08 00:46 41.71953 -71.42077 63 ft 14 kts 141°
2026-05-08 00:47 41.71879 -71.41997 56 ft 13 kts 142°
2026-05-08 00:47 41.71836 -71.41900 56 ft 13 kts 76°
2026-05-08 00:47 41.71890 -71.41870 61 ft 10 kts 331°
2026-05-08 00:47 41.71957 -71.41936 61 ft 29 kts 322°
2026-05-08 00:48 41.72343 -71.42348 58 ft 111 kts 321°
2026-05-08 00:48 41.73107 -71.43157 312 ft 157 kts 321°
2026-05-08 00:48 41.74134 -71.43971 817 ft 189 kts 340°
2026-05-08 00:48 41.75481 -71.44361 1262 ft 209 kts 346°
2026-05-08 00:49 41.76915 -71.44747 1760 ft 217 kts 346°
2026-05-08 00:49 41.78439 -71.45151 2308 ft 228 kts 345°
2026-05-08 00:49 41.79847 -71.46049 3186 ft 224 kts 316°
2026-05-08 00:49 41.80661 -71.47803 4080 ft 226 kts 286°
2026-05-08 00:50 41.80651 -71.49924 4903 ft 235 kts 256°
2026-05-08 00:50 41.79783 -71.51804 5748 ft 245 kts 226°
2026-05-08 00:50 41.78255 -71.52906 6574 ft 257 kts 197°
2026-05-08 00:50 41.76440 -71.52966 7350 ft 268 kts 172°
2026-05-08 00:51 41.74632 -71.52259 8153 ft 273 kts 165°
2026-05-08 00:51 41.72830 -71.51392 8919 ft 277 kts 163°
2026-05-08 00:51 41.71014 -71.50488 9744 ft 279 kts 164°
2026-05-08 00:51 41.69144 -71.49560 10157 ft 297 kts 165°
2026-05-08 00:52 41.67189 -71.48600 10712 ft 306 kts 165°
2026-05-08 00:52 41.65132 -71.47599 11056 ft 326 kts 165°
2026-05-08 00:52 41.62917 -71.46533 11244 ft 348 kts 165°
2026-05-08 00:52 41.60569 -71.45406 11474 ft 367 kts 165°
2026-05-08 00:53 41.58132 -71.44233 12031 ft 375 kts 166°
2026-05-08 00:53 41.55704 -71.43062 12804 ft 376 kts 166°
2026-05-08 00:53 41.53240 -71.41876 13593 ft 377 kts 167°
2026-05-08 00:53 41.50756 -71.40685 14254 ft 379 kts 168°
2026-05-08 00:54 41.48269 -71.39495 14967 ft 380 kts 168°
2026-05-08 00:54 41.45774 -71.38303 15691 ft 380 kts 169°
2026-05-08 00:54 41.43279 -71.37114 16382 ft 381 kts 169°
2026-05-08 00:54 41.40775 -71.35923 17030 ft 383 kts 169°
2026-05-08 00:55 41.38253 -71.34725 17672 ft 385 kts 170°
2026-05-08 00:55 41.35721 -71.33522 18282 ft 387 kts 170°
2026-05-08 00:55 41.33174 -71.32314 18770 ft 391 kts 170°
2026-05-08 00:55 41.30632 -71.31108 19214 ft 395 kts 170°
2026-05-08 00:56 41.28033 -71.29876 19678 ft 399 kts 170°
2026-05-08 00:56 41.25403 -71.28631 20148 ft 402 kts 170°
2026-05-08 00:56 41.22728 -71.27697 20572 ft 391 kts 184°
2026-05-08 00:56 41.20079 -71.27938 21025 ft 376 kts 201°
2026-05-08 00:57 41.17683 -71.29179 21501 ft 366 kts 216°
2026-05-08 00:57 41.15631 -71.31141 21955 ft 363 kts 226°
2026-05-08 00:57 41.13973 -71.33653 22381 ft 361 kts 239°
2026-05-08 00:57 41.12776 -71.36585 22831 ft 363 kts 244°
2026-05-08 00:58 41.11694 -71.39623 23259 ft 366 kts 245°
2026-05-08 00:58 41.10648 -71.42665 23644 ft 368 kts 246°
2026-05-08 00:58 41.09587 -71.45761 24041 ft 369 kts 246°
2026-05-08 00:58 41.08514 -71.48865 24428 ft 370 kts 246°
2026-05-08 00:59 41.07432 -71.51967 24804 ft 372 kts 246°
2026-05-08 00:59 41.06336 -71.55082 25162 ft 373 kts 246°
2026-05-08 00:59 41.05605 -71.57149 25400 ft 374 kts 246°
2026-05-08 00:59 41.04495 -71.60277 25745 ft 376 kts 246°
2026-05-08 01:00 41.03375 -71.63425 26075 ft 378 kts 246°
2026-05-08 01:00 41.02248 -71.66584 26417 ft 379 kts 246°
2026-05-08 01:00 41.01119 -71.69741 26851 ft 378 kts 246°
2026-05-08 01:00 40.99999 -71.72872 27411 ft 374 kts 246°
2026-05-08 01:01 40.98899 -71.75941 27924 ft 371 kts 246°
2026-05-08 01:01 40.97795 -71.79020 28391 ft 370 kts 246°
2026-05-08 01:01 40.96692 -71.82092 28845 ft 368 kts 246°
2026-05-08 01:01 40.95597 -71.85139 29330 ft 366 kts 246°
2026-05-08 01:02 40.94506 -71.88172 29827 ft 364 kts 247°
2026-05-08 01:02 40.93420 -71.91186 30243 ft 362 kts 247°
2026-05-08 01:02 40.92338 -71.94188 30600 ft 361 kts 247°
2026-05-08 01:02 40.91261 -71.97175 30961 ft 359 kts 247°
2026-05-08 01:03 40.90183 -72.00157 31313 ft 358 kts 247°
2026-05-08 01:03 40.89108 -72.03131 31659 ft 357 kts 247°
2026-05-08 01:03 40.88039 -72.06084 31988 ft 356 kts 247°
2026-05-08 01:03 40.86971 -72.09032 32328 ft 355 kts 247°
2026-05-08 01:04 40.85907 -72.11967 32678 ft 354 kts 247°
2026-05-08 01:04 40.84844 -72.14894 33000 ft 353 kts 246°
2026-05-08 01:04 40.83797 -72.17776 33300 ft 352 kts 246°
2026-05-08 01:04 40.82739 -72.20685 33648 ft 351 kts 246°
2026-05-08 01:05 40.81680 -72.23593 33886 ft 351 kts 246°
2026-05-08 01:05 40.79541 -72.29460 33878 ft 355 kts 246°
2026-05-08 01:06 40.77407 -72.35298 33874 ft 350 kts 246°
2026-05-08 01:06 40.75299 -72.41055 33890 ft 348 kts 246°
2026-05-08 01:07 40.73193 -72.46802 33902 ft 355 kts 246°
2026-05-08 01:07 40.71014 -72.52731 33901 ft 364 kts 246°
2026-05-08 01:08 40.68271 -72.58463 33900 ft 377 kts 236°
2026-05-08 01:08 40.64523 -72.63443 33896 ft 387 kts 227°
2026-05-08 01:09 40.60453 -72.68079 33886 ft 389 kts 227°
2026-05-08 01:09 40.56359 -72.72740 33877 ft 389 kts 227°
2026-05-08 01:10 40.52278 -72.77405 33867 ft 388 kts 228°
2026-05-08 01:10 40.48203 -72.82066 33876 ft 387 kts 228°
2026-05-08 01:11 40.44140 -72.86710 33876 ft 387 kts 228°
2026-05-08 01:11 40.40079 -72.91344 33877 ft 386 kts 228°
2026-05-08 01:12 40.36023 -72.95964 33880 ft 386 kts 228°
2026-05-08 01:12 40.31994 -73.00547 33876 ft 386 kts 228°
2026-05-08 01:13 40.27937 -73.05155 33876 ft 386 kts 228°
2026-05-08 01:13 40.23881 -73.09750 33882 ft 386 kts 228°
2026-05-08 01:14 40.19821 -73.14337 33882 ft 386 kts 228°
2026-05-08 01:14 40.15750 -73.18932 33887 ft 386 kts 228°
2026-05-08 01:15 40.11706 -73.23490 33889 ft 387 kts 228°
2026-05-08 01:15 40.07625 -73.28078 33895 ft 387 kts 228°
2026-05-08 01:16 40.03532 -73.32666 33892 ft 388 kts 228°
2026-05-08 01:16 39.99437 -73.37251 33897 ft 388 kts 228°
2026-05-08 01:17 39.95331 -73.41842 33892 ft 388 kts 228°
2026-05-08 01:17 39.91226 -73.46426 33901 ft 389 kts 228°
2026-05-08 01:18 39.87113 -73.51012 33892 ft 389 kts 228°
2026-05-08 01:18 39.82997 -73.55591 33900 ft 389 kts 228°
2026-05-08 01:19 39.78873 -73.60169 33898 ft 389 kts 228°
2026-05-08 01:19 39.74775 -73.64715 33903 ft 389 kts 228°
2026-05-08 01:20 39.70654 -73.69279 33895 ft 389 kts 228°
2026-05-08 01:20 39.66526 -73.73844 33900 ft 389 kts 228°
2026-05-08 01:21 39.62407 -73.78393 33903 ft 389 kts 228°
2026-05-08 01:21 39.58285 -73.82937 33904 ft 389 kts 228°
2026-05-08 01:22 39.54160 -73.87477 33903 ft 389 kts 228°
2026-05-08 01:22 39.50032 -73.92014 33908 ft 389 kts 228°
2026-05-08 01:23 39.45933 -73.96513 33909 ft 389 kts 228°
2026-05-08 01:23 39.41801 -74.01039 33910 ft 389 kts 228°
2026-05-08 01:24 39.37669 -74.05561 33909 ft 388 kts 228°
2026-05-08 01:24 39.33548 -74.10071 33911 ft 388 kts 228°
2026-05-08 01:25 39.29419 -74.14583 33905 ft 388 kts 228°
2026-05-08 01:25 39.25293 -74.19087 33905 ft 388 kts 228°
2026-05-08 01:26 39.21183 -74.23564 33902 ft 388 kts 228°
2026-05-08 01:26 39.17057 -74.28052 33904 ft 388 kts 228°
2026-05-08 01:27 39.12916 -74.32550 33909 ft 388 kts 228°
2026-05-08 01:27 39.08776 -74.37039 33912 ft 389 kts 228°
2026-05-08 01:28 39.04634 -74.41524 33914 ft 389 kts 228°
2026-05-08 01:28 39.00512 -74.45981 33917 ft 389 kts 228°
2026-05-08 01:29 38.96549 -74.50651 33911 ft 380 kts 238°
2026-05-08 01:29 38.93761 -74.56323 33915 ft 372 kts 248°
2026-05-08 01:30 38.92148 -74.62566 33920 ft 368 kts 257°
2026-05-08 01:30 38.90930 -74.68947 33919 ft 367 kts 257°
2026-05-08 01:31 38.89678 -74.75312 33915 ft 367 kts 257°
2026-05-08 01:31 38.88463 -74.81670 33919 ft 366 kts 258°
2026-05-08 01:32 38.87283 -74.87985 33917 ft 365 kts 258°
2026-05-08 01:32 38.86091 -74.94326 33914 ft 365 kts 258°
2026-05-08 01:33 38.84896 -75.00645 33814 ft 365 kts 258°
2026-05-08 01:33 38.84290 -75.03845 33168 ft 370 kts 258°
2026-05-08 01:33 38.83682 -75.07045 32453 ft 367 kts 258°
2026-05-08 01:33 38.83075 -75.10232 31668 ft 369 kts 258°
2026-05-08 01:34 38.82465 -75.13438 30845 ft 371 kts 257°
2026-05-08 01:34 38.81850 -75.16655 30031 ft 373 kts 257°
2026-05-08 01:34 38.81239 -75.19901 29004 ft 376 kts 259°
2026-05-08 01:34 38.80830 -75.23168 27980 ft 379 kts 264°
2026-05-08 01:35 38.80633 -75.26545 27141 ft 378 kts 265°
2026-05-08 01:35 38.80439 -75.29897 26431 ft 375 kts 264°
2026-05-08 01:35 38.80240 -75.33212 25761 ft 372 kts 264°
2026-05-08 01:35 38.80037 -75.36500 25110 ft 368 kts 264°
2026-05-08 01:36 38.79832 -75.39762 24478 ft 365 kts 264°
2026-05-08 01:36 38.79627 -75.42998 23851 ft 363 kts 264°
2026-05-08 01:36 38.79422 -75.46221 23164 ft 361 kts 264°
2026-05-08 01:36 38.79217 -75.49417 22453 ft 359 kts 264°
2026-05-08 01:37 38.79013 -75.52591 21702 ft 357 kts 264°
2026-05-08 01:37 38.78809 -75.55773 20968 ft 357 kts 264°
2026-05-08 01:37 38.78605 -75.58930 20307 ft 355 kts 264°
2026-05-08 01:37 38.78403 -75.62067 19688 ft 352 kts 264°
2026-05-08 01:38 38.78201 -75.65188 19088 ft 350 kts 264°
2026-05-08 01:38 38.77999 -75.68288 18501 ft 348 kts 264°
2026-05-08 01:38 38.77800 -75.71332 17878 ft 346 kts 264°
2026-05-08 01:38 38.77600 -75.74394 17293 ft 343 kts 264°
2026-05-08 01:39 38.77401 -75.77420 16735 ft 339 kts 264°
2026-05-08 01:39 38.77203 -75.80411 16174 ft 335 kts 263°
2026-05-08 01:39 38.77006 -75.83382 15596 ft 333 kts 263°
2026-05-08 01:39 38.76810 -75.86327 15025 ft 331 kts 263°
2026-05-08 01:40 38.76613 -75.89269 14455 ft 329 kts 263°
2026-05-08 01:40 38.76418 -75.92181 13897 ft 327 kts 263°
2026-05-08 01:40 38.76222 -75.95077 13286 ft 325 kts 263°
2026-05-08 01:40 38.76028 -75.97958 12707 ft 323 kts 264°
2026-05-08 01:41 38.75834 -76.00816 12116 ft 321 kts 264°
2026-05-08 01:41 38.75642 -76.03622 11546 ft 319 kts 264°
2026-05-08 01:41 38.75497 -76.06491 11007 ft 318 kts 269°
2026-05-08 01:41 38.75640 -76.09212 10962 ft 305 kts 275°
2026-05-08 01:42 38.75894 -76.11934 10908 ft 315 kts 275°
2026-05-08 01:42 38.76174 -76.14780 10837 ft 326 kts 276°
2026-05-08 01:42 38.76456 -76.17637 10764 ft 318 kts 276°
2026-05-08 01:42 38.76724 -76.20384 10690 ft 303 kts 276°
2026-05-08 01:43 38.76976 -76.23009 10632 ft 289 kts 276°
2026-05-08 01:43 38.77215 -76.25528 10577 ft 283 kts 276°
2026-05-08 01:43 38.77449 -76.28034 10536 ft 283 kts 276°
2026-05-08 01:43 38.77683 -76.30543 10476 ft 284 kts 276°
2026-05-08 01:44 38.77916 -76.33059 10433 ft 285 kts 276°
2026-05-08 01:44 38.78149 -76.35586 10378 ft 286 kts 276°
2026-05-08 01:44 38.78380 -76.38088 10324 ft 286 kts 276°
2026-05-08 01:44 38.78613 -76.40624 10268 ft 286 kts 276°
2026-05-08 01:45 38.78847 -76.43164 10218 ft 286 kts 276°
2026-05-08 01:45 38.79079 -76.45692 10130 ft 286 kts 276°
2026-05-08 01:45 38.79310 -76.48222 10041 ft 286 kts 276°
2026-05-08 01:45 38.79463 -76.49908 10017 ft 286 kts 276°
2026-05-08 01:46 38.79692 -76.52429 10005 ft 284 kts 276°
2026-05-08 01:46 38.79905 -76.55778 9997 ft 284 kts 273°
2026-05-08 01:46 38.79982 -76.58264 9987 ft 273 kts 272°
2026-05-08 01:46 38.80027 -76.59881 9984 ft 264 kts 272°
2026-05-08 01:47 38.80091 -76.62166 9978 ft 250 kts 272°
2026-05-08 01:47 38.80156 -76.64314 9988 ft 239 kts 273°
2026-05-08 01:47 38.80222 -76.66438 9995 ft 239 kts 273°
2026-05-08 01:48 38.80362 -76.70729 10015 ft 242 kts 273°
2026-05-08 01:48 38.80432 -76.72892 10006 ft 243 kts 273°
2026-05-08 01:48 38.80502 -76.75052 9998 ft 243 kts 273°
2026-05-08 01:48 38.80632 -76.77210 9989 ft 243 kts 282°
2026-05-08 01:49 38.81265 -76.79205 9992 ft 244 kts 299°
2026-05-08 01:49 38.82277 -76.80965 10007 ft 245 kts 304°
2026-05-08 01:49 38.83346 -76.82637 9996 ft 245 kts 305°
2026-05-08 01:49 38.84430 -76.84336 9998 ft 245 kts 305°
2026-05-08 01:50 38.85503 -76.86040 10014 ft 245 kts 304°
2026-05-08 01:50 38.86574 -76.87752 10001 ft 246 kts 304°
2026-05-08 01:50 38.87642 -76.89466 10001 ft 246 kts 305°
2026-05-08 01:50 38.88805 -76.91100 9998 ft 249 kts 310°
2026-05-08 01:51 38.90046 -76.92681 9734 ft 257 kts 311°
2026-05-08 01:51 38.91344 -76.94314 9260 ft 263 kts 312°
2026-05-08 01:51 38.92662 -76.95973 8785 ft 266 kts 312°
2026-05-08 01:51 38.93989 -76.97652 8320 ft 267 kts 313°
2026-05-08 01:52 38.95300 -76.99317 7847 ft 263 kts 313°
2026-05-08 01:52 38.96590 -77.00961 7384 ft 259 kts 314°
2026-05-08 01:52 38.97865 -77.02589 6898 ft 257 kts 314°
2026-05-08 01:52 38.99098 -77.04168 6421 ft 256 kts 314°
2026-05-08 01:53 39.00356 -77.05780 5903 ft 255 kts 315°
2026-05-08 01:53 39.01592 -77.07365 5393 ft 254 kts 315°
2026-05-08 01:53 39.02858 -77.08989 4883 ft 253 kts 314°
2026-05-08 01:53 39.04036 -77.10628 4345 ft 253 kts 302°
2026-05-08 01:54 39.04611 -77.12768 3853 ft 251 kts 275°
2026-05-08 01:54 39.04401 -77.14933 3374 ft 247 kts 251°
2026-05-08 01:54 39.03514 -77.16743 3159 ft 233 kts 227°
2026-05-08 01:54 39.02213 -77.17850 2939 ft 223 kts 203°
2026-05-08 01:55 39.00719 -77.18172 2770 ft 210 kts 180°
2026-05-08 01:55 38.99339 -77.17873 2696 ft 195 kts 163°
2026-05-08 01:55 38.98147 -77.17059 2717 ft 196 kts 144°
2026-05-08 01:55 38.97078 -77.15966 2691 ft 195 kts 142°
2026-05-08 01:56 38.96059 -77.14859 2595 ft 189 kts 141°
2026-05-08 01:56 38.95093 -77.13781 2392 ft 180 kts 141°
2026-05-08 01:56 38.94155 -77.12734 2188 ft 178 kts 142°
2026-05-08 01:56 38.93237 -77.11730 1938 ft 172 kts 148°
2026-05-08 01:57 38.92229 -77.11011 1728 ft 160 kts 158°
2026-05-08 01:57 38.91248 -77.10377 1502 ft 160 kts 152°
2026-05-08 01:57 38.90507 -77.09290 1303 ft 168 kts 115°
2026-05-08 01:57 38.90455 -77.07815 1117 ft 165 kts 84°
2026-05-08 01:58 38.90151 -77.06490 924 ft 151 kts 142°
2026-05-08 01:58 38.89346 -77.05712 782 ft 150 kts 141°
2026-05-08 01:58 38.88576 -77.04860 710 ft 141 kts 143°
2026-05-08 01:58 38.87792 -77.04216 437 ft 129 kts 159°
2026-05-08 01:59 38.86929 -77.03950 233 ft 127 kts 176°
2026-05-08 01:59 38.86070 -77.03865 54 ft 119 kts 176°
2026-05-08 01:59 38.85295 -77.03798 24 ft 96 kts 176°
2026-05-08 01:59 38.84944 -77.03766 23 ft 12 kts 194°
2026-05-08 02:00 38.84889 -77.03816 24 ft 8 kts 239°
2026-05-08 02:00 38.84882 -77.03841 22 ft 0 kts 255°
2026-05-08 02:01 38.84880 -77.03855 23 ft 0 kts 258°
2026-05-08 02:03 38.84879 -77.03862 25 ft 7 kts 259°
2026-05-08 02:03 38.84875 -77.03886 24 ft 0 kts 259°
2026-05-08 02:03 38.84843 -77.03930 23 ft 11 kts 196°
2026-05-08 02:03 38.84770 -77.03955 23 ft 11 kts 200°
2026-05-08 02:04 38.84702 -77.03993 26 ft 11 kts 204°
2026-05-08 02:04 38.84641 -77.04040 25 ft 10 kts 229°
2026-05-08 02:04 38.84626 -77.04109 23 ft 6 kts 281°
2026-05-08 02:04 38.84629 -77.04127 23 ft 2 kts 271°
2026-05-08 02:05 38.84624 -77.04161 23 ft 4 kts 263°
2026-05-08 02:05 38.84634 -77.04193 23 ft 4 kts 321°
2026-05-08 02:05 38.84648 -77.04201 25 ft 0 kts 332°